#timestamp,LO_Frequency,Hit 
1502233215.2,286046987.2,N
1502233235.1,286046988.1,N
1502233236.0,286046988.1,N
1502233255.8,286046986.3,N
1502233275.6,286046985.1,N
1502233295.5,286046983.0,N
1502233315.3,286046981.5,N
1502233335.1,286046980.4,N
1502233355.9,286046980.2,N
1502233375.7,286046978.5,N
1502233395.5,286046975.7,N
1502233415.4,286046975.9,N
1502233435.2,286046974.2,N
1502233455.0,286046977.2,N
1502233455.9,286046977.2,N
1502233475.7,286046974.2,N
1502233495.6,286046975.9,N
1502233515.4,286046974.6,N
1502233535.2,286046975.0,N
1502233555.1,286046975.5,N
1502233556.0,286046975.5,N
1502233575.8,286046974.5,N
1502233595.6,286046974.6,N
1502233615.5,286046975.9,N
1502233635.3,286046976.6,N
1502233655.1,286046972.6,N
1502233675.9,286046974.3,N
1502233695.7,286046974.3,N
1502233715.5,286046974.8,N
1502233735.3,286046974.1,N
1502233755.2,286046974.8,N
1502233775.0,286046974.6,N
1502233775.9,286046974.6,N
1502233795.7,286046972.7,N
1502233815.6,286046973.3,N
1502233835.4,286046973.6,N
1502233855.2,286046970.9,N
1502233875.1,286046973.6,N
1502233876.0,286046973.6,N
1502233895.8,286046973.3,N
1502233915.6,286046973.0,N
1502233935.5,286046973.9,N
1502233955.3,286046973.5,N
1502233975.1,286046975.5,N
1502233995.8,286046973.2,N
1502234015.7,286046972.5,N
1502234035.5,286046973.3,N
1502234055.3,286046972.7,N
1502234075.2,286046975.4,N
1502234095.9,286046975.6,N
1502234115.7,286046972.9,N
1502234135.6,286046972.8,N
1502234155.4,286046971.0,N
1502234175.2,286046973.7,N
1502234195.1,286046974.9,N
1502234196.0,286046974.9,N
1502234215.8,286046974.9,N
1502234235.6,286046974.6,N
1502234255.4,286046970.9,N
1502234275.3,286046971.5,N
1502234295.1,286046969.6,N
1502234315.8,286046970.2,N
1502234335.7,286046969.6,N
1502234355.5,286046974.0,N
1502234375.3,286046970.9,N
1502234395.2,286046977.2,N
1502234415.9,286046975.3,N
1502234435.7,286046970.9,N
1502234455.6,286046971.3,N
1502234475.4,286046971.0,N
1502234495.2,286046973.9,N
1502234515.0,286046972.7,N
1502234515.9,286046972.7,N
1502234535.8,286046973.8,N
1502234555.6,286046971.1,N
1502234575.4,286046971.3,N
1502234595.3,286046971.0,N
1502234615.1,286046971.4,N
1502234635.8,286046972.7,N
1502234655.7,286046973.5,N
1502234675.6,286046972.7,N
1502234695.4,286046970.9,N
1502234715.2,286046973.8,N
1502234735.1,286046975.6,N
1502234736.0,286046975.6,N
1502234755.8,286046973.6,N
1502234775.6,286046972.8,N
1502234795.5,286046974.1,N
1502234815.3,286046978.1,N
1502234835.1,286046980.0,N
1502234855.9,286046980.2,N
1502234875.7,286046977.4,N
1502234895.5,286046979.9,N
1502234915.4,286046978.8,N
1502234935.2,286046978.6,N
1502234955.0,286046977.4,N
1502234955.9,286046977.4,N
1502234975.8,286046980.0,N
1502234995.6,286046979.3,N
1502235015.4,286046979.7,N
1502235035.2,286046979.8,N
1502235055.1,286046975.8,N
1502235056.0,286046975.8,N
1502235075.8,286046976.6,N
1502235095.6,286046976.5,N
1502235115.5,286046974.5,N
1502235135.3,286046975.4,N
1502235155.1,286046976.3,N
1502235175.9,286046974.2,N
1502235195.7,286046976.1,N
1502235215.5,286046976.7,N
1502235235.4,286046976.7,N
1502235255.2,286046977.0,N
1502235275.0,286046978.7,N
1502235275.9,286046978.7,N
1502235295.7,286046977.8,N
1502235315.6,286046980.4,N
1502235335.4,286046977.9,N
1502235355.2,286046978.4,N
1502235375.1,286046978.8,N
1502235376.0,286046978.8,N
1502235395.8,286046979.9,N
1502235415.6,286046977.5,N
1502235435.5,286046979.5,N
1502235455.3,286046979.3,N
1502235475.1,286046980.1,N
1502235495.9,286046979.5,N
1502235515.7,286046978.9,N
1502235535.5,286046980.5,N
1502235555.4,286046984.8,N
1502235575.2,286046987.9,N
1502235595.0,286046985.3,N
1502235595.9,286046985.3,N
1502235615.7,286046985.8,N
1502235635.6,286046988.3,N
1502235655.4,286046986.4,N
1502235675.2,286046984.7,N
1502235695.1,286046982.8,N
1502235696.0,286046982.8,N
1502235715.8,286046982.2,N
1502235735.6,286046985.7,N
1502235755.5,286046986.2,N
1502235775.3,286046983.7,N
1502235795.1,286046984.0,N
1502235815.9,286046985.0,N
1502235835.7,286046985.2,N
1502235855.5,286046984.5,N
1502235875.3,286046980.6,N
1502235895.2,286046979.3,N
1502235915.0,286046981.6,N
1502235915.9,286046981.6,N
1502235935.7,286046981.7,N
1502235955.6,286046981.0,N
1502235975.4,286046982.5,N
1502235995.2,286046981.4,N
1502236015.1,286046978.9,N
1502236016.0,286046978.9,N
1502236035.8,286046983.6,N
1502236055.6,286046981.4,N
1502236075.5,286046983.4,N
1502236095.3,286046984.7,N
1502236115.1,286046984.9,N
1502236135.9,286046984.9,N
1502236155.7,286046984.8,N
1502236175.5,286046985.0,N
1502236195.3,286046984.7,N
1502236215.2,286046984.2,N
1502236235.0,286046982.1,N
1502236235.9,286046982.1,N
1502236255.7,286046982.8,N
1502236275.6,286046982.3,N
1502236295.4,286046982.3,N
1502236315.2,286046982.4,N
1502236335.1,286046983.1,N
1502236336.0,286046983.1,N
1502236355.8,286046980.9,N
1502236375.6,286046981.3,N
1502236395.5,286046981.4,N
1502236415.3,286046980.5,N
1502236435.1,286046981.0,N
1502236455.8,286046981.4,N
1502236475.7,286046983.6,N
1502236495.5,286046980.5,N
1502236515.3,286046983.6,N
1502236535.2,286046982.3,N
1502236555.9,286046982.5,N
1502236575.7,286046982.3,N
1502236595.6,286046982.7,N
1502236615.4,286046984.6,N
1502236635.2,286046984.5,N
1502236655.0,286046984.3,N
1502236656.0,286046984.3,N
1502236675.8,286046984.0,N
1502236695.6,286046984.1,N
1502236715.4,286046984.1,N
1502236735.3,286046984.9,N
1502236755.1,286046984.5,N
1502236775.8,286046984.4,N
1502236795.7,286046984.6,N
